This is the latest recevied weather packets stored in our database for station/object WB4ZUT. If no packets are shown the sender has not sent any weather packets the latest 10 day(s).
| Time | Temp. | Humidity | Pressure | Rain* | Wind** | Luminosity | Snow |
|---|---|---|---|---|---|---|---|
| 1777651955 | 15° C | 47% | 1016.9 hPa | 0 mm | - | 833 W/m² | - |
| 1777651652 | 15° C | 48% | 1016.8 hPa | 0 mm | - | 815 W/m² | - |
| 1777651349 | 14.44° C | 51% | 1016.9 hPa | 0 mm | - | 833 W/m² | - |
| 1777651046 | 15° C | 47% | 1016.9 hPa | 0 mm | - | 835 W/m² | - |
| 1777650743 | 15° C | 50% | 1017.1 hPa | 0 mm | - | 822 W/m² | - |
| 1777650440 | 14.44° C | 49% | 1016.9 hPa | 0 mm | - | 776 W/m² | - |
| 1777650137 | 14.44° C | 46% | 1017 hPa | 0 mm | - | 781 W/m² | - |
| 1777649834 | 14.44° C | 47% | 1017 hPa | 0 mm | - | 794 W/m² | - |
| 1777649531 | 15° C | 48% | 1016.8 hPa | 0 mm | - | 798 W/m² | - |
| 1777649227 | 14.44° C | 49% | 1016.8 hPa | 0 mm | - | 763 W/m² | - |
| 1777648925 | 14.44° C | 47% | 1016.6 hPa | 0 mm | - | 742 W/m² | - |
| 1777648622 | 14.44° C | 49% | 1016.5 hPa | 0 mm | - | 726 W/m² | - |
| 1777648318 | 14.44° C | 46% | 1016.8 hPa | 0 mm | - | 710 W/m² | - |
| 1777648015 | 14.44° C | 45% | 1016.7 hPa | 0 mm | - | 719 W/m² | - |
| 1777647711 | 14.44° C | 50% | 1016.5 hPa | 0 mm | - | 698 W/m² | - |
| 1777647407 | 13.89° C | 50% | 1016.2 hPa | 0 mm | - | 655 W/m² | - |
| 1777647105 | 13.89° C | 52% | 1016.2 hPa | 0 mm | - | 622 W/m² | - |
| 1777646802 | 13.89° C | 50% | 1016.3 hPa | 0 mm | - | 633 W/m² | - |
| 1777646496 | 13.33° C | 54% | 1016.2 hPa | 0 mm | - | 596 W/m² | - |
| 1777646193 | 13.33° C | 56% | 1016.1 hPa | 0 mm | - | 586 W/m² | - |
| 1777645891 | 13.89° C | 57% | 1016.3 hPa | 0 mm | - | 562 W/m² | - |
| 1777645587 | 13.89° C | 57% | 1016.2 hPa | 0 mm | - | 551 W/m² | - |
| 1777645283 | 13.33° C | 60% | 1016.2 hPa | 0 mm | - | 525 W/m² | - |
| 1777644979 | 13.33° C | 60% | 1015.9 hPa | 0 mm | - | 465 W/m² | - |
| 1777644677 | 13.33° C | 61% | 1016.1 hPa | 0 mm | - | 461 W/m² | - |
* Rain latest hour (hover to see other rain measurements)
** Current wind speed in m/s (hover to see current wind gust speed)